User: anonymous   Login
Location: Unspecified
(0.0000°N, 0.0000°E)
Time: 04:54:46
(UTC+00:00)
Language:

SPOT 7 - Orbit

View from above orbital plane
View from above orbital plane
View from above satellite
View from above satellite

Ground track
Ground track

The orbit data is extracted from the following two-line orbital elements,

1 40053U 14034A   18113.88489667 -.00000011  00000-0  75126-5 0  9993
2 40053  98.1910 182.2399 0001410  90.7755 269.3597 14.58547308203163
Epoch (UTC): 23 April 2018 21:14:15
Eccentricity: 0.0001410
inclination: 98.1910°
perigee height: 697 km
apogee height: 699 km
right ascension of ascending node: 182.2399°
argument of perigee: 90.7755°
revolutions per day: 14.58547308
mean anomaly at epoch: 269.3597°
orbit number at epoch: 20316

The dashed part of the orbit path shows where the satellite is in the earth's shadow,  

DLR